Weather History for Monroe, WI

Change the Weather History Date:

Sunday, August 11, 2013

  Actual Average Record
Temperature  
Mean Temperature 70 °F -  
Max Temperature 79 °F 79 °F 89 °F (2002)
Min Temperature 60 °F 50 °F 21 °F (1998)
Cooling Degree Days 4    
Growing Degree Days 20 (Base 50)    
Moisture  
Dew Point 59 °F    
Average Humidity 70    
Maximum Humidity 99    
Minimum Humidity 48    
Precipitation  
Precipitation 0.00 in - - ()
Sea Level Pressure  
Sea Level Pressure 30.10 in    
Wind  
Wind Speed 5 mph (SW)    
Max Wind Speed 16 mph    
Max Gust Speed 22 mph    
Visibility 10 miles    
Events Rain    
Averages and records for this station are not official NWS values.
T = Trace of Precipitation, MM = Missing Value Source: NWS Daily Summary

Daily Weather History Graph

Daily Weather History Graph

Search for Another Location

Airport:

Trip Planner

Search our weather history database for the weather conditions in past years. The results will help you decide how hot, cold, wet, or windy it might be!

Date:

Astronomy

Aug. 11, 2013 Rise Set
Actual Time 6:01 AM CDT 8:05 PM CDT
Civil Twilight 5:30 AM CDT 8:35 PM CDT
Nautical Twilight 4:52 AM CDT 9:13 PM CDT
Astronomical Twilight 4:10 AM CDT 9:54 PM CDT
Moon 10:57 AM CDT (8/11) 10:12 PM CDT (8/11)
Length of Visible Light 15h 05m
Length of Day
14h 04m
Waxing Crescent, 22% of the Moon is Illuminated
Aug 11
Waxing Crescent
Aug 14
First Quarter
Aug 20
Full
Aug 28
Last Quarter
Sep 5
New

Hourly Weather History & Observations

Time (CDT) Temp. Dew Point Humidity Pressure Visibility Wind Dir Wind Speed Gust Speed Precip Events Conditions
12:15 AM 63.9 °F 53.2 °F 68% 30.14 in 10.0 mi Calm Calm - N/A   Clear
12:35 AM 64.4 °F 53.1 °F 67% 30.14 in 10.0 mi Calm Calm - N/A   Clear
12:55 AM 64.0 °F 52.9 °F 67% 30.14 in 10.0 mi SSW 3.5 mph - N/A   Scattered Clouds
1:15 AM 64.2 °F 52.9 °F 67% 30.15 in 10.0 mi SW 3.5 mph - N/A   Mostly Cloudy
1:35 AM 64.4 °F 53.1 °F 67% 30.15 in 10.0 mi SW 5.8 mph - N/A   Overcast
1:55 AM 63.5 °F 54.3 °F 72% 30.15 in 10.0 mi SW 5.8 mph - N/A   Overcast
2:15 AM 63.9 °F 54.0 °F 70% 30.15 in 10.0 mi SW 4.6 mph - N/A   Overcast
2:35 AM 63.1 °F 53.8 °F 71% 30.14 in 10.0 mi SSW 4.6 mph - N/A   Scattered Clouds
2:55 AM 63.5 °F 53.6 °F 70% 30.14 in 10.0 mi SSW 4.6 mph - N/A   Clear
3:15 AM 62.6 °F 53.6 °F 72% 30.13 in 10.0 mi SSW 4.6 mph - N/A   Clear
3:35 AM 62.6 °F 53.8 °F 73% 30.14 in 10.0 mi SW 5.8 mph - N/A   Clear
3:55 AM 61.7 °F 57.6 °F 86% 30.14 in 10.0 mi SSW 6.9 mph - N/A   Clear
4:15 AM 60.8 °F 58.5 °F 92% 30.14 in 10.0 mi SSW 6.9 mph - N/A   Mostly Cloudy
4:35 AM 60.8 °F 58.8 °F 93% 30.13 in 10.0 mi SSW 6.9 mph - N/A   Mostly Cloudy
4:55 AM 61.2 °F 58.5 °F 91% 30.12 in 10.0 mi SSW 6.9 mph - N/A   Scattered Clouds
5:15 AM 62.4 °F 57.2 °F 83% 30.13 in 10.0 mi SW 6.9 mph - N/A   Mostly Cloudy
5:35 AM 63.7 °F 54.1 °F 71% 30.14 in 10.0 mi SW 5.8 mph - N/A   Overcast
5:55 AM 64.6 °F 53.4 °F 67% 30.14 in 10.0 mi WSW 8.1 mph - N/A   Overcast
6:15 AM 64.8 °F 53.6 °F 67% 30.13 in 10.0 mi West 3.5 mph - N/A   Overcast
6:35 AM 63.9 °F 54.5 °F 72% 30.13 in 10.0 mi Calm Calm - N/A   Overcast
6:55 AM 66.0 °F 55.2 °F 68% 30.14 in 10.0 mi Calm Calm - N/A   Overcast
7:15 AM 65.5 °F 54.7 °F 68% 30.14 in 10.0 mi WSW 4.6 mph - N/A   Overcast
7:35 AM 66.2 °F 56.8 °F 72% 30.13 in 10.0 mi Calm Calm - N/A   Overcast
7:55 AM 65.8 °F 63.0 °F 90% 30.13 in 10.0 mi Calm Calm - N/A   Overcast
8:15 AM 66.6 °F 64.4 °F 93% 30.14 in 10.0 mi Calm Calm - N/A   Overcast
8:35 AM 65.8 °F 64.0 °F 94% 30.15 in 10.0 mi NNW 4.6 mph - N/A Rain Rain
8:55 AM 65.3 °F 64.8 °F 98% 30.15 in 10.0 mi Calm Calm - N/A   Light Drizzle
9:15 AM 65.7 °F 58.3 °F 77% 30.15 in 10.0 mi Calm Calm - N/A   Overcast
9:35 AM 65.7 °F 63.1 °F 92% 30.14 in 10.0 mi Calm Calm - N/A   Overcast
9:55 AM 66.4 °F 57.4 °F 73% 30.13 in 10.0 mi SE 3.5 mph - N/A   Overcast
10:15 AM 67.8 °F 60.8 °F 78% 30.13 in 10.0 mi SE 4.6 mph - N/A   Overcast
10:35 AM 69.8 °F 58.3 °F 67% 30.13 in 10.0 mi SSE 5.8 mph - N/A   Overcast
10:55 AM 69.3 °F 57.6 °F 66% 30.13 in 10.0 mi South 6.9 mph - N/A   Overcast
11:15 AM 69.3 °F 57.0 °F 65% 30.13 in 10.0 mi SSE 6.9 mph - N/A   Overcast
11:35 AM 69.4 °F 57.4 °F 65% 30.12 in 10.0 mi South 8.1 mph - N/A   Overcast
11:55 AM 70.9 °F 57.0 °F 61% 30.12 in 10.0 mi South 9.2 mph - N/A   Mostly Cloudy
12:15 PM 70.3 °F 57.2 °F 63% 30.11 in 10.0 mi SSW 10.4 mph - N/A   Mostly Cloudy
12:35 PM 71.4 °F 57.9 °F 62% 30.11 in 10.0 mi SSW 10.4 mph 17.3 mph N/A   Mostly Cloudy
12:55 PM 72.0 °F 59.2 °F 64% 30.10 in 10.0 mi SSW 10.4 mph - N/A   Overcast
1:15 PM 72.9 °F 59.4 °F 62% 30.10 in 10.0 mi SW 9.2 mph - N/A   Overcast
1:35 PM 73.4 °F 60.3 °F 63% 30.09 in 10.0 mi SW 9.2 mph - N/A   Overcast
1:55 PM 74.1 °F 60.4 °F 62% 30.09 in 10.0 mi SW 9.2 mph - N/A   Overcast
2:15 PM 75.0 °F 61.0 °F 62% 30.09 in 10.0 mi WSW 12.7 mph - N/A   Mostly Cloudy
2:35 PM 76.1 °F 61.0 °F 59% 30.08 in 10.0 mi WSW 10.4 mph - N/A   Mostly Cloudy
2:55 PM 77.5 °F 61.2 °F 57% 30.08 in 10.0 mi WSW 13.8 mph 18.4 mph N/A   Overcast
3:15 PM 77.2 °F 61.2 °F 58% 30.08 in 10.0 mi WSW 16.1 mph - N/A   Mostly Cloudy
3:35 PM 79.0 °F 61.5 °F 55% 30.08 in 10.0 mi West 13.8 mph 18.4 mph N/A   Mostly Cloudy
3:55 PM 78.8 °F 59.9 °F 52% 30.07 in 10.0 mi WSW 15.0 mph - N/A   Mostly Cloudy
4:15 PM 78.6 °F 57.4 °F 48% 30.07 in 10.0 mi West 15.0 mph 21.9 mph N/A   Mostly Cloudy
4:35 PM 78.1 °F 59.2 °F 52% 30.07 in 10.0 mi West 12.7 mph - N/A   Mostly Cloudy
4:55 PM 77.9 °F 60.1 °F 54% 30.07 in 10.0 mi West 10.4 mph - N/A   Overcast
5:15 PM 77.4 °F 59.4 °F 54% 30.06 in 10.0 mi West 9.2 mph - N/A   Overcast
5:35 PM 77.0 °F 60.3 °F 56% 30.06 in 10.0 mi West 6.9 mph - N/A   Overcast
5:55 PM 77.0 °F 61.0 °F 58% 30.06 in 10.0 mi West 8.1 mph - N/A   Overcast
6:15 PM 77.0 °F 60.3 °F 56% 30.05 in 10.0 mi West 8.1 mph - N/A   Mostly Cloudy
6:35 PM 76.5 °F 59.9 °F 56% 30.05 in 10.0 mi West 3.5 mph - N/A   Overcast
6:55 PM 75.9 °F 60.4 °F 59% 30.05 in 10.0 mi West 4.6 mph - N/A   Mostly Cloudy
7:15 PM 75.2 °F 61.0 °F 61% 30.05 in 10.0 mi West 3.5 mph - N/A   Scattered Clouds
7:35 PM 74.8 °F 61.2 °F 62% 30.05 in 10.0 mi Calm Calm - N/A   Mostly Cloudy
7:55 PM 74.7 °F 61.7 °F 64% 30.05 in 10.0 mi Calm Calm - N/A   Mostly Cloudy
8:15 PM 73.8 °F 62.8 °F 68% 30.05 in 10.0 mi West 4.6 mph - N/A Rain Light Rain
8:35 PM 73.4 °F 61.9 °F 67% 30.05 in 10.0 mi West 4.6 mph - N/A   Scattered Clouds
8:55 PM 73.2 °F 61.7 °F 67% 30.05 in 10.0 mi WSW 3.5 mph - N/A   Clear
9:15 PM 71.6 °F 63.5 °F 76% 30.05 in 10.0 mi Calm Calm - N/A   Mostly Cloudy
9:35 PM 72.5 °F 63.1 °F 72% 30.06 in 10.0 mi Calm Calm - N/A   Overcast
9:55 PM 71.8 °F 64.0 °F 77% 30.06 in 10.0 mi NNE 5.8 mph - N/A   Overcast
10:15 PM 69.3 °F 69.1 °F 99% 30.06 in 10.0 mi Calm Calm - N/A   Overcast
10:35 PM 70.2 °F 68.9 °F 96% 30.05 in 10.0 mi East 3.5 mph - N/A   Overcast
10:55 PM 70.3 °F 68.9 °F 95% 30.04 in 10.0 mi East 5.8 mph - N/A   Overcast